Location: Unspecified
(20.0000°S, 0.0000°E)
Time: 00:01:26
(UTC+00:00)

OTV 5 (USA 277) - Pass Details

Date: 25 May 2019
Orbit: 310 x 325 km, 54.5° (Epoch: 08 May)

Event Time Altitude Azimuth Distance (km) Brightness Sun altitude
Exits shadow 05:02:56 16° 350° (N) 963 ? -19.1°
Drops below altitude 10° 05:03:45 10° 2° (N) 1,236 ? -18.9°
Sets 05:05:53 0° 16° (NNE) 2,061 ? -18.4°
